TimeMST,TemperatureF,Dew PointF,Humidity,Sea Level PressureIn,VisibilityMPH,Wind Direction,Wind SpeedMPH,Gust SpeedMPH,PrecipitationIn,Events,Conditions,WindDirDegrees,DateUTC
12:53 AM,35.1,3.9,27,30.15,10.0,SSW,15.0,-,N/A,,Partly Cloudy,210,2012-12-21 07:53:00
1:53 AM,26.1,6.1,43,30.17,10.0,South,12.7,-,N/A,,Scattered Clouds,190,2012-12-21 08:53:00
2:53 AM,27.0,5.0,39,30.18,10.0,South,13.8,-,N/A,,Partly Cloudy,190,2012-12-21 09:53:00
3:53 AM,28.0,5.0,38,30.17,10.0,SSW,17.3,-,N/A,,Partly Cloudy,210,2012-12-21 10:53:00
4:53 AM,30.9,3.0,31,30.18,10.0,SSW,13.8,-,N/A,,Partly Cloudy,210,2012-12-21 11:53:00
5:53 AM,33.1,1.9,27,30.19,10.0,South,16.1,-,N/A,,Scattered Clouds,190,2012-12-21 12:53:00
6:53 AM,32.0,1.9,28,30.19,10.0,SSW,19.6,-,N/A,,Scattered Clouds,200,2012-12-21 13:53:00
7:53 AM,36.0,1.9,24,30.18,10.0,SSW,17.3,-,N/A,,Mostly Cloudy,210,2012-12-21 14:53:00
8:53 AM,42.1,1.9,19,30.18,10.0,SSW,17.3,-,N/A,,Mostly Cloudy,210,2012-12-21 15:53:00
9:53 AM,45.0,5.0,19,30.17,10.0,SW,13.8,-,N/A,,Mostly Cloudy,220,2012-12-21 16:53:00
10:53 AM,48.0,3.9,16,30.12,10.0,SSW,17.3,-,N/A,,Mostly Cloudy,210,2012-12-21 17:53:00
11:53 AM,50.0,5.0,16,30.08,10.0,SSW,10.4,-,N/A,,Mostly Cloudy,200,2012-12-21 18:53:00
12:53 PM,51.1,3.9,15,30.04,10.0,SSW,12.7,-,N/A,,Mostly Cloudy,200,2012-12-21 19:53:00
1:53 PM,46.0,12.0,25,30.08,10.0,South,10.4,-,N/A,,Mostly Cloudy,190,2012-12-21 20:53:00
2:53 PM,44.1,16.0,32,30.06,10.0,South,9.2,-,N/A,,Mostly Cloudy,180,2012-12-21 21:53:00
3:53 PM,39.0,19.0,45,30.08,10.0,SSE,4.6,-,N/A,,Mostly Cloudy,160,2012-12-21 22:53:00
4:53 PM,42.1,12.0,29,30.05,10.0,SW,6.9,-,N/A,,Mostly Cloudy,220,2012-12-21 23:53:00
5:53 PM,28.9,14.0,54,30.10,10.0,South,9.2,-,N/A,,Scattered Clouds,190,2012-12-22 00:53:00
6:53 PM,28.9,10.0,45,30.10,10.0,SSW,12.7,-,N/A,,Scattered Clouds,200,2012-12-22 01:53:00
7:53 PM,41.0,7.0,25,30.04,10.0,SSW,12.7,-,N/A,,Scattered Clouds,210,2012-12-22 02:53:00
8:53 PM,34.0,7.0,32,30.04,10.0,SW,9.2,-,N/A,,Partly Cloudy,220,2012-12-22 03:53:00
9:53 PM,35.1,6.1,30,30.02,10.0,SW,9.2,-,N/A,,Partly Cloudy,230,2012-12-22 04:53:00
10:53 PM,33.1,6.1,32,30.03,10.0,SW,13.8,-,N/A,,Partly Cloudy,230,2012-12-22 05:53:00
11:53 PM,35.1,5.0,28,29.98,10.0,SSW,16.1,-,N/A,,Partly Cloudy,210,2012-12-22 06:53:00